Meteo pe oră la Al Marj

Astăzi, 24 Ianuarie, Duminică

Timp Temperatura Precipitaţii Vânt Presiune Umiditate
00:00 +7°C° 0 mm 4 m/s 713 mmHg 47%
01:00 +7°C° 0 mm 4 m/s 713 mmHg 47%
02:00 +6°C° 0 mm 4 m/s 713 mmHg 47%
03:00 +7°C° 0 mm 3 m/s 713 mmHg 48%
04:00 +7°C° 0 mm 3 m/s 713 mmHg 48%
05:00 +7°C° 0 mm 3 m/s 713 mmHg 51%
06:00 +7°C° 0 mm 3 m/s 713 mmHg 53%
07:00 +7°C° 0 mm 2 m/s 713 mmHg 55%
08:00 +8°C° 0 mm 3 m/s 713 mmHg 52%
09:00 +10°C° 0 mm 3 m/s 714 mmHg 50%
10:00 +12°C° 0 mm 3 m/s 714 mmHg 47%
11:00 +13°C° 0 mm 4 m/s 714 mmHg 46%
12:00 +14°C° 0 mm 4 m/s 714 mmHg 44%
13:00 +15°C° 0 mm 5 m/s 714 mmHg 42%
14:00 +14°C° 0 mm 5 m/s 713 mmHg 44%
15:00 +14°C° 0 mm 5 m/s 713 mmHg 45%
16:00 +14°C° 0 mm 5 m/s 712 mmHg 47%
17:00 +13°C° 0 mm 4 m/s 712 mmHg 54%
18:00 +12°C° 0 mm 4 m/s 712 mmHg 61%
19:00 +11°C° 0 mm 4 m/s 713 mmHg 67%
20:00 +11°C° 0 mm 4 m/s 713 mmHg 69%
21:00 +10°C° 0 mm 4 m/s 713 mmHg 71%
22:00 +10°C° 0 mm 4 m/s 712 mmHg 73%
23:00 +10°C° 0 mm 4 m/s 712 mmHg 74%

Mâine, 25 Ianuarie, Luni

Timp Temperatura Precipitaţii Vânt Presiune Umiditate
00:00 +10°C° 0 mm 4 m/s 712 mmHg 74%
01:00 +9°C° 0 mm 5 m/s 712 mmHg 74%
02:00 +10°C° 0 mm 4 m/s 712 mmHg 74%
03:00 +8°C° 0 mm 4 m/s 712 mmHg 73%
04:00 +8°C° 0 mm 4 m/s 712 mmHg 72%
05:00 +8°C° 0 mm 4 m/s 712 mmHg 71%
06:00 +8°C° 0 mm 4 m/s 712 mmHg 69%
07:00 +8°C° 0 mm 4 m/s 713 mmHg 68%
08:00 +11°C° 0 mm 4 m/s 713 mmHg 66%
09:00 +13°C° 0 mm 5 m/s 714 mmHg 63%
10:00 +14°C° 0 mm 5 m/s 714 mmHg 61%
11:00 +15°C° 0 mm 5 m/s 714 mmHg 59%
12:00 +15°C° 0 mm 5 m/s 714 mmHg 56%
13:00 +16°C° 0 mm 6 m/s 714 mmHg 54%
14:00 +15°C° 0 mm 5 m/s 714 mmHg 58%
15:00 +15°C° 0 mm 5 m/s 714 mmHg 62%
16:00 +14°C° 0 mm 5 m/s 713 mmHg 66%
17:00 +13°C° 0 mm 4 m/s 714 mmHg 72%
18:00 +12°C° 0 mm 4 m/s 714 mmHg 78%
19:00 +11°C° 0 mm 3 m/s 714 mmHg 84%
20:00 +11°C° 0 mm 3 m/s 714 mmHg 86%
21:00 +11°C° 0 mm 3 m/s 714 mmHg 88%
22:00 +11°C° 0 mm 3 m/s 714 mmHg 89%
23:00 +10°C° 0 mm 3 m/s 714 mmHg 90%

Poimâine, 26 Ianuarie, Marţi

Timp Temperatura Precipitaţii Vânt Presiune Umiditate
00:00 +10°C° 0 mm 2 m/s 714 mmHg 91%
01:00 +10°C° 0 mm 2 m/s 714 mmHg 91%
02:00 +10°C° 0 mm 2 m/s 714 mmHg 91%
03:00 +10°C° 0 mm 2 m/s 714 mmHg 91%
04:00 +9°C° 0 mm 2 m/s 713 mmHg 91%
05:00 +9°C° 0 mm 2 m/s 714 mmHg 91%
06:00 +10°C° 0 mm 1 m/s 714 mmHg 92%
07:00 +10°C° 0 mm 1 m/s 714 mmHg 92%
08:00 +10°C° 0 mm 2 m/s 714 mmHg 85%
09:00 +12°C° 0 mm 3 m/s 714 mmHg 78%
10:00 +13°C° 0 mm 4 m/s 715 mmHg 71%
11:00 +13°C° 0 mm 5 m/s 714 mmHg 70%
12:00 +14°C° 0 mm 5 m/s 714 mmHg 68%
13:00 +14°C° 0 mm 6 m/s 714 mmHg 66%
14:00 +13°C° 0.6 mm 6 m/s 713 mmHg 72%
15:00 +11°C° 0.6 mm 7 m/s 713 mmHg 77%
16:00 +10°C° 0.6 mm 7 m/s 713 mmHg 83%
17:00 +10°C° 1.6 mm 7 m/s 713 mmHg 86%
18:00 +9°C° 1.6 mm 8 m/s 713 mmHg 88%
19:00 +7°C° 1.6 mm 8 m/s 713 mmHg 90%
20:00 +8°C° 1.7 mm 7 m/s 713 mmHg 86%
21:00 +8°C° 1.7 mm 7 m/s 713 mmHg 82%
22:00 +8°C° 1.7 mm 7 m/s 713 mmHg 79%
23:00 +8°C° 0 mm 7 m/s 713 mmHg 78%

27 Ianuarie, Miercuri

Timp Temperatura Precipitaţii Vânt Presiune Umiditate
00:00 +7°C° 0 mm 6 m/s 713 mmHg 77%
01:00 +7°C° 0 mm 6 m/s 713 mmHg 76%
02:00 +6°C° 0.1 mm 7 m/s 713 mmHg 78%
03:00 +5°C° 0.1 mm 7 m/s 712 mmHg 81%
04:00 +5°C° 0.1 mm 7 m/s 712 mmHg 84%
05:00 +5°C° 0.1 mm 7 m/s 712 mmHg 84%
06:00 +5°C° 0.1 mm 7 m/s 713 mmHg 85%
07:00 +5°C° 0.1 mm 6 m/s 713 mmHg 85%
08:00 +6°C° 0.1 mm 7 m/s 713 mmHg 78%
09:00 +7°C° 0.1 mm 8 m/s 713 mmHg 70%
10:00 +8°C° 0.1 mm 9 m/s 714 mmHg 63%
11:00 +10°C° 0.1 mm 9 m/s 714 mmHg 62%
12:00 +9°C° 0.1 mm 10 m/s 713 mmHg 61%
13:00 +9°C° 0.1 mm 10 m/s 713 mmHg 60%
14:00 +8°C° 0 mm 9 m/s 713 mmHg 62%
15:00 +8°C° 0 mm 9 m/s 713 mmHg 64%
16:00 +7°C° 0 mm 8 m/s 713 mmHg 66%
17:00 +8°C° 0.1 mm 7 m/s 713 mmHg 70%
18:00 +7°C° 0.1 mm 6 m/s 714 mmHg 74%
19:00 +7°C° 0.1 mm 5 m/s 714 mmHg 78%
20:00 +7°C° 0 mm 4 m/s 714 mmHg 78%
21:00 +6°C° 0 mm 4 m/s 714 mmHg 77%
22:00 +7°C° 0 mm 3 m/s 714 mmHg 77%
23:00 +7°C° 0 mm 3 m/s 714 mmHg 78%

28 Ianuarie, Joi

Timp Temperatura Precipitaţii Vânt Presiune Umiditate
00:00 +7°C° 0 mm 3 m/s 714 mmHg 78%
01:00 +7°C° 0 mm 3 m/s 714 mmHg 79%
02:00 +7°C° 0 mm 3 m/s 713 mmHg 79%
03:00 +7°C° 0 mm 3 m/s 713 mmHg 79%
04:00 +6°C° 0 mm 4 m/s 713 mmHg 80%
05:00 +6°C° 0.3 mm 4 m/s 713 mmHg 85%
06:00 +7°C° 0.3 mm 4 m/s 712 mmHg 89%
07:00 +7°C° 0.3 mm 5 m/s 712 mmHg 94%
08:00 +7°C° 2.4 mm 6 m/s 712 mmHg 92%
09:00 +8°C° 2.4 mm 7 m/s 713 mmHg 90%
10:00 +9°C° 2.4 mm 8 m/s 713 mmHg 87%
11:00 +9°C° 0.1 mm 8 m/s 713 mmHg 80%
12:00 +10°C° 0.1 mm 8 m/s 713 mmHg 72%
13:00 +10°C° 0.1 mm 8 m/s 713 mmHg 64%
14:00 +10°C° 0 mm 7 m/s 714 mmHg 66%
15:00 +9°C° 0 mm 7 m/s 714 mmHg 68%
16:00 +8°C° 0 mm 7 m/s 714 mmHg 70%
17:00 +7°C° 0 mm 6 m/s 715 mmHg 71%
18:00 +7°C° 0 mm 5 m/s 715 mmHg 72%
19:00 +6°C° 0 mm 4 m/s 716 mmHg 74%

29 Ianuarie, Vineri

Timp Temperatura Precipitaţii Vânt Presiune Umiditate
Arată mai mult

Formular de consimțământ

Meteoprog și furnizorii noștri de servicii pot stoca și accesa date personale, precum cookies, identificatori de dispozitiv sau alte tehnologii similare pe dispozitivul dumneavoastră și procesa astfel de date pentru a personaliza conținutul și reclamele, dar și pentru a oferi caracteristici de social media și pentru a analiza traficul.

  • Stocarea și/sau accesarea informațiilor pe dispozitivul dumneavoastră

    Cookies, identificatori de dispozitiv sau alte informații pot fi stocate sau accesate pe dispozitiv în scopurile indicate mai sus.

  • Reclame și conținut personalizat, evaluarea reclamelor și a conținutului, informații despre audiențe și dezvoltarea produselor

    Reclamele și conținutul pot fi personalizate pe baza unui profil. Pot fi adăugate date suplimentare pentru a personaliza mai bine reclamele și conținutul. Performanța reclamelor și conținutului poate fi măsurată. Pot fi obținute informații despre utilizatorii care au văzut reclamele și conținutul. Aceste date pot fi utilizate pentru a dezvolta sau îmbunătăți experiența utilizatorilor, sistemele și software-ul.

Dând clic pe ‘Sunt de acord’, permiteți utilizarea cookie-urilor menționate, a identificatorilor de dispozitiv, balizelor web sau altor tehnologii similare. Setările pot fi modificate din browser-ul dispozitivului dumneavoastră.

În anumite scopuri, interesele legitime pot prima asupra consimțământului. Puteți citi mai multe informații în acest sens în Politica privind Confidențialitatea Datelor și Cookie.